owner,sensor,date,latitude,longitude,vertical_datum,direction_of_sea_water_velocity,sea_water_speed,upward_sea_water_velocity,qcFlag 
ADCP,ioos:station:wmo:42890:1,2009-10-01T00:17:00Z,27.6250,-90.4410,15.2,123.0,28.2,-9999.0,'11111222,11111222,99999999' 
ADCP,ioos:station:wmo:42890:1,2009-10-01T00:37:00Z,27.6250,-90.4410,15.2,125.0,29.1,-9999.0,'11111222,11111222,99999999' 
ADCP,ioos:station:wmo:42890:1,2009-10-01T00:57:00Z,27.6250,-90.4410,15.2,131.0,28.0,-9999.0,'11111222,11111222,99999999' 
ADCP,ioos:station:wmo:42890:1,2009-10-01T01:17:00Z,27.6250,-90.4410,15.2,131.0,27.2,-9999.0,'11111222,11111222,99999999' 
ADCP,ioos:station:wmo:42890:1,2009-10-01T01:37:00Z,27.6250,-90.4410,15.2,129.0,29.5,-9999.0,'11111222,11111222,99999999' 
ADCP,ioos:station:wmo:42890:1,2009-10-01T01:57:00Z,27.6250,-90.4410,15.2,126.0,29.3,-9999.0,'11111222,11111222,99999999' 
ADCP,ioos:station:wmo:42890:1,2009-10-01T02:17:00Z,27.6250,-90.4410,15.2,125.0,28.6,-9999.0,'11111222,11111222,99999999' 
ADCP,ioos:station:wmo:42890:1,2009-10-01T02:37:00Z,27.6250,-90.4410,15.2,124.0,29.2,-9999.0,'11111222,11111222,99999999' 
ADCP,ioos:station:wmo:42890:1,2009-10-01T02:57:00Z,27.6250,-90.4410,15.2,133.0,28.7,-9999.0,'11111222,11111222,99999999' 
ADCP,ioos:station:wmo:42890:1,2009-10-01T03:17:00Z,27.6250,-90.4410,15.2,150.0,24.6,-9999.0,'11111222,11111222,99999999' 
ADCP,ioos:station:wmo:42890:1,2009-10-01T03:37:00Z,27.6250,-90.4410,15.2,166.0,25.0,-9999.0,'11111222,11111222,99999999' 
ADCP,ioos:station:wmo:42890:1,2009-10-01T03:57:00Z,27.6250,-90.4410,15.2,180.0,24.6,-9999.0,'11111222,11111222,99999999' 
ADCP,ioos:station:wmo:42890:1,2009-10-01T04:17:00Z,27.6250,-90.4410,15.2,180.0,23.8,-9999.0,'11111222,11111222,99999999' 
ADCP,ioos:station:wmo:42890:1,2009-10-01T04:37:00Z,27.6250,-90.4410,15.2,194.0,25.1,-9999.0,'11111222,11111222,99999999' 
ADCP,ioos:station:wmo:42890:1,2009-10-01T04:57:00Z,27.6250,-90.4410,15.2,212.0,27.7,-9999.0,'11111222,11111222,99999999' 
ADCP,ioos:station:wmo:42890:1,2009-10-01T05:17:00Z,27.6250,-90.4410,15.2,214.0,26.6,-9999.0,'11111222,11111222,99999999' 
ADCP,ioos:station:wmo:42890:1,2009-10-01T05:37:00Z,27.6250,-90.4410,15.2,216.0,27.7,-9999.0,'11111222,11111222,99999999' 
ADCP,ioos:station:wmo:42890:1,2009-10-01T05:57:00Z,27.6250,-90.4410,15.2,223.0,29.6,-9999.0,'11111222,11111222,99999999' 
ADCP,ioos:station:wmo:42890:1,2009-10-01T06:17:00Z,27.6250,-90.4410,15.2,218.0,29.3,-9999.0,'11111222,11111222,99999999' 
ADCP,ioos:station:wmo:42890:1,2009-10-01T06:37:00Z,27.6250,-90.4410,15.2,220.0,30.2,-9999.0,'11111222,11111222,99999999' 
ADCP,ioos:station:wmo:42890:1,2009-10-01T06:57:00Z,27.6250,-90.4410,15.2,218.0,27.1,-9999.0,'11111222,11111222,99999999' 
ADCP,ioos:station:wmo:42890:1,2009-10-01T07:17:00Z,27.6250,-90.4410,15.2,217.0,26.5,-9999.0,'11111222,11111222,99999999' 
ADCP,ioos:station:wmo:42890:1,2009-10-01T07:37:00Z,27.6250,-90.4410,15.2,222.0,27.1,-9999.0,'11111222,11111222,99999999' 
ADCP,ioos:station:wmo:42890:1,2009-10-01T07:57:00Z,27.6250,-90.4410,15.2,217.0,23.8,-9999.0,'11111222,11111222,99999999' 
ADCP,ioos:station:wmo:42890:1,2009-10-01T08:17:00Z,27.6250,-90.4410,15.2,229.0,31.0,-9999.0,'11111222,11111222,99999999' 
ADCP,ioos:station:wmo:42890:1,2009-10-01T08:37:00Z,27.6250,-90.4410,15.2,213.0,20.8,-9999.0,'11111222,11111222,99999999' 
ADCP,ioos:station:wmo:42890:1,2009-10-01T08:57:00Z,27.6250,-90.4410,15.2,214.0,21.5,-9999.0,'11111222,11111222,99999999' 
ADCP,ioos:station:wmo:42890:1,2009-10-01T09:17:00Z,27.6250,-90.4410,15.2,225.0,21.9,-9999.0,'11111222,11111222,99999999' 
ADCP,ioos:station:wmo:42890:1,2009-10-01T09:37:00Z,27.6250,-90.4410,15.2,224.0,19.6,-9999.0,'11111222,11111222,99999999' 
ADCP,ioos:station:wmo:42890:1,2009-10-01T09:57:00Z,27.6250,-90.4410,15.2,223.0,19.9,-9999.0,'11111222,11111222,99999999' 
ADCP,ioos:station:wmo:42890:1,2009-10-01T10:17:00Z,27.6250,-90.4410,15.2,225.0,19.9,-9999.0,'11111222,11111222,99999999' 
ADCP,ioos:station:wmo:42890:1,2009-10-01T10:37:00Z,27.6250,-90.4410,15.2,224.0,20.2,-9999.0,'11111222,11111222,99999999' 
ADCP,ioos:station:wmo:42890:1,2009-10-01T10:57:00Z,27.6250,-90.4410,15.2,223.0,19.3,-9999.0,'11111222,11111222,99999999' 
ADCP,ioos:station:wmo:42890:1,2009-10-01T11:17:00Z,27.6250,-90.4410,15.2,229.0,21.5,-9999.0,'11111222,11111222,99999999' 
ADCP,ioos:station:wmo:42890:1,2009-10-01T11:37:00Z,27.6250,-90.4410,15.2,227.0,22.8,-9999.0,'11111222,11111222,99999999' 
ADCP,ioos:station:wmo:42890:1,2009-10-01T11:57:00Z,27.6250,-90.4410,15.2,223.0,24.5,-9999.0,'11111222,11111222,99999999' 
ADCP,ioos:station:wmo:42890:1,2009-10-01T12:17:00Z,27.6250,-90.4410,15.2,231.0,30.0,-9999.0,'11111222,11111222,99999999' 
ADCP,ioos:station:wmo:42890:1,2009-10-01T12:37:00Z,27.6250,-90.4410,15.2,262.0,129.4,-9999.0,'11111222,11111222,99999999' 
ADCP,ioos:station:wmo:42890:1,2009-10-01T12:57:00Z,27.6250,-90.4410,15.2,253.0,64.8,-9999.0,'11111222,11111222,99999999' 
ADCP,ioos:station:wmo:42890:1,2009-10-01T13:17:00Z,27.6250,-90.4410,15.2,225.0,24.5,-9999.0,'11111222,11111222,99999999' 
ADCP,ioos:station:wmo:42890:1,2009-10-01T13:37:00Z,27.6250,-90.4410,15.2,224.0,24.4,-9999.0,'11111222,11111222,99999999' 
ADCP,ioos:station:wmo:42890:1,2009-10-01T13:57:00Z,27.6250,-90.4410,15.2,282.0,151.3,-9999.0,'11133222,11111222,99999999' 
ADCP,ioos:station:wmo:42890:1,2009-10-01T14:17:00Z,27.6250,-90.4410,15.2,314.0,66.3,-9999.0,'11111222,11111222,99999999' 
ADCP,ioos:station:wmo:42890:1,2009-10-01T14:37:00Z,27.6250,-90.4410,15.2,292.0,97.1,-9999.0,'11111222,11111222,99999999' 
ADCP,ioos:station:wmo:42890:1,2009-10-01T14:57:00Z,27.6250,-90.4410,15.2,219.0,25.9,-9999.0,'11111222,11111222,99999999' 
ADCP,ioos:station:wmo:42890:1,2009-10-01T15:17:00Z,27.6250,-90.4410,15.2,211.0,22.7,-9999.0,'11111222,11111222,99999999' 
ADCP,ioos:station:wmo:42890:1,2009-10-01T15:37:00Z,27.6250,-90.4410,15.2,213.0,23.5,-9999.0,'11111222,11111222,99999999' 
ADCP,ioos:station:wmo:42890:1,2009-10-01T15:57:00Z,27.6250,-90.4410,15.2,218.0,23.1,-9999.0,'11111222,11111222,99999999' 
ADCP,ioos:station:wmo:42890:1,2009-10-01T16:17:00Z,27.6250,-90.4410,15.2,219.0,25.2,-9999.0,'11111222,11111222,99999999' 
ADCP,ioos:station:wmo:42890:1,2009-10-01T16:37:00Z,27.6250,-90.4410,15.2,213.0,26.8,-9999.0,'11111222,11111222,99999999' 
ADCP,ioos:station:wmo:42890:1,2009-10-01T16:57:00Z,27.6250,-90.4410,15.2,205.0,25.1,-9999.0,'11111222,11111222,99999999' 
ADCP,ioos:station:wmo:42890:1,2009-10-01T17:17:00Z,27.6250,-90.4410,15.2,213.0,26.9,-9999.0,'11111222,11111222,99999999' 
ADCP,ioos:station:wmo:42890:1,2009-10-01T17:37:00Z,27.6250,-90.4410,15.2,214.0,26.5,-9999.0,'11111222,11111222,99999999' 
ADCP,ioos:station:wmo:42890:1,2009-10-01T17:57:00Z,27.6250,-90.4410,15.2,214.0,27.3,-9999.0,'11111222,11111222,99999999' 
ADCP,ioos:station:wmo:42890:1,2009-10-01T18:17:00Z,27.6250,-90.4410,15.2,200.0,24.9,-9999.0,'11111222,11111222,99999999' 
ADCP,ioos:station:wmo:42890:1,2009-10-01T18:37:00Z,27.6250,-90.4410,15.2,194.0,27.0,-9999.0,'11111222,11111222,99999999' 
ADCP,ioos:station:wmo:42890:1,2009-10-01T18:57:00Z,27.6250,-90.4410,15.2,177.0,22.9,-9999.0,'11111222,11111222,99999999' 
ADCP,ioos:station:wmo:42890:1,2009-10-01T19:17:00Z,27.6250,-90.4410,15.2,212.0,29.1,-9999.0,'11111222,11111222,99999999' 
ADCP,ioos:station:wmo:42890:1,2009-10-01T19:37:00Z,27.6250,-90.4410,15.2,196.0,31.1,-9999.0,'11111222,11111222,99999999' 
ADCP,ioos:station:wmo:42890:1,2009-10-01T19:57:00Z,27.6250,-90.4410,15.2,191.0,31.2,-9999.0,'11111222,11111222,99999999' 
ADCP,ioos:station:wmo:42890:1,2009-10-01T20:17:00Z,27.6250,-90.4410,15.2,199.0,30.2,-9999.0,'11111222,11111222,99999999' 
ADCP,ioos:station:wmo:42890:1,2009-10-01T20:37:00Z,27.6250,-90.4410,15.2,191.0,30.3,-9999.0,'11111222,11111222,99999999' 
ADCP,ioos:station:wmo:42890:1,2009-10-01T20:57:00Z,27.6250,-90.4410,15.2,198.0,29.2,-9999.0,'11111222,11111222,99999999' 
ADCP,ioos:station:wmo:42890:1,2009-10-01T21:17:00Z,27.6250,-90.4410,15.2,188.0,26.6,-9999.0,'11111222,11111222,99999999' 
ADCP,ioos:station:wmo:42890:1,2009-10-01T21:37:00Z,27.6250,-90.4410,15.2,187.0,26.1,-9999.0,'11111222,11111222,99999999' 
ADCP,ioos:station:wmo:42890:1,2009-10-01T21:57:00Z,27.6250,-90.4410,15.2,185.0,24.3,-9999.0,'11111222,11111222,99999999' 
ADCP,ioos:station:wmo:42890:1,2009-10-01T22:17:00Z,27.6250,-90.4410,15.2,165.0,26.7,-9999.0,'11111222,11111222,99999999' 
ADCP,ioos:station:wmo:42890:1,2009-10-01T22:37:00Z,27.6250,-90.4410,15.2,150.0,29.8,-9999.0,'11111222,11111222,99999999' 
ADCP,ioos:station:wmo:42890:1,2009-10-01T22:57:00Z,27.6250,-90.4410,15.2,147.0,28.1,-9999.0,'11111222,11111222,99999999' 
ADCP,ioos:station:wmo:42890:1,2009-10-01T23:17:00Z,27.6250,-90.4410,15.2,166.0,25.6,-9999.0,'11111222,11111222,99999999' 
ADCP,ioos:station:wmo:42890:1,2009-10-01T23:37:00Z,27.6250,-90.4410,15.2,166.0,26.2,-9999.0,'11111222,11111222,99999999' 
ADCP,ioos:station:wmo:42890:1,2009-10-01T23:57:00Z,27.6250,-90.4410,15.2,161.0,25.4,-9999.0,'11111222,11111222,99999999' 
ADCP,ioos:station:wmo:42890:1,2009-10-02T00:17:00Z,27.6250,-90.4410,15.2,158.0,26.2,-9999.0,'11111222,11111222,99999999' 
ADCP,ioos:station:wmo:42890:1,2009-10-02T00:37:00Z,27.6250,-90.4410,15.2,146.0,26.2,-9999.0,'11111222,11111222,99999999' 
ADCP,ioos:station:wmo:42890:1,2009-10-02T00:57:00Z,27.6250,-90.4410,15.2,136.0,24.6,-9999.0,'11111222,11111222,99999999' 
ADCP,ioos:station:wmo:42890:1,2009-10-02T01:17:00Z,27.6250,-90.4410,15.2,120.0,28.5,-9999.0,'11111222,11111222,99999999' 
ADCP,ioos:station:wmo:42890:1,2009-10-02T01:37:00Z,27.6250,-90.4410,15.2,121.0,28.5,-9999.0,'11111222,11111222,99999999' 
ADCP,ioos:station:wmo:42890:1,2009-10-02T01:57:00Z,27.6250,-90.4410,15.2,123.0,26.6,-9999.0,'11111222,11111222,99999999' 
ADCP,ioos:station:wmo:42890:1,2009-10-02T02:17:00Z,27.6250,-90.4410,15.2,122.0,28.4,-9999.0,'11111222,11111222,99999999' 
ADCP,ioos:station:wmo:42890:1,2009-10-02T02:37:00Z,27.6250,-90.4410,15.2,122.0,29.3,-9999.0,'11111222,11111222,99999999' 
ADCP,ioos:station:wmo:42890:1,2009-10-02T02:57:00Z,27.6250,-90.4410,15.2,124.0,26.5,-9999.0,'11111222,11111222,99999999' 
ADCP,ioos:station:wmo:42890:1,2009-10-02T03:17:00Z,27.6250,-90.4410,15.2,129.0,23.0,-9999.0,'11111222,11111222,99999999' 
ADCP,ioos:station:wmo:42890:1,2009-10-02T03:37:00Z,27.6250,-90.4410,15.2,131.0,22.2,-9999.0,'11111222,11111222,99999999' 
ADCP,ioos:station:wmo:42890:1,2009-10-02T03:57:00Z,27.6250,-90.4410,15.2,134.0,22.1,-9999.0,'11111222,11111222,99999999' 
ADCP,ioos:station:wmo:42890:1,2009-10-02T04:17:00Z,27.6250,-90.4410,15.2,131.0,23.7,-9999.0,'11111222,11111222,99999999' 
ADCP,ioos:station:wmo:42890:1,2009-10-02T04:37:00Z,27.6250,-90.4410,15.2,128.0,22.1,-9999.0,'11111222,11111222,99999999' 
ADCP,ioos:station:wmo:42890:1,2009-10-02T04:57:00Z,27.6250,-90.4410,15.2,126.0,21.7,-9999.0,'11111222,11111222,99999999' 
ADCP,ioos:station:wmo:42890:1,2009-10-02T05:17:00Z,27.6250,-90.4410,15.2,130.0,18.7,-9999.0,'11111222,11111222,99999999' 
ADCP,ioos:station:wmo:42890:1,2009-10-02T05:37:00Z,27.6250,-90.4410,15.2,131.0,16.7,-9999.0,'11111222,11111222,99999999' 
ADCP,ioos:station:wmo:42890:1,2009-10-02T05:57:00Z,27.6250,-90.4410,15.2,128.0,17.4,-9999.0,'11111222,11111222,99999999' 
ADCP,ioos:station:wmo:42890:1,2009-10-02T06:17:00Z,27.6250,-90.4410,15.2,140.0,15.3,-9999.0,'11111222,11111222,99999999' 
ADCP,ioos:station:wmo:42890:1,2009-10-02T06:37:00Z,27.6250,-90.4410,15.2,163.0,11.4,-9999.0,'11111222,11111222,99999999' 
ADCP,ioos:station:wmo:42890:1,2009-10-02T06:57:00Z,27.6250,-90.4410,15.2,182.0,10.4,-9999.0,'11111222,11111222,99999999' 
ADCP,ioos:station:wmo:42890:1,2009-10-02T07:17:00Z,27.6250,-90.4410,15.2,149.0,13.2,-9999.0,'11111222,11111222,99999999' 
ADCP,ioos:station:wmo:42890:1,2009-10-02T07:37:00Z,27.6250,-90.4410,15.2,130.0,17.7,-9999.0,'11111222,11111222,99999999' 
ADCP,ioos:station:wmo:42890:1,2009-10-02T07:57:00Z,27.6250,-90.4410,15.2,127.0,20.7,-9999.0,'11111222,11111222,99999999' 
ADCP,ioos:station:wmo:42890:1,2009-10-02T08:17:00Z,27.6250,-90.4410,15.2,136.0,16.9,-9999.0,'11111222,11111222,99999999' 
ADCP,ioos:station:wmo:42890:1,2009-10-02T08:37:00Z,27.6250,-90.4410,15.2,138.0,14.6,-9999.0,'11111222,11111222,99999999' 
ADCP,ioos:station:wmo:42890:1,2009-10-02T08:57:00Z,27.6250,-90.4410,15.2,141.0,14.2,-9999.0,'11111222,11111222,99999999' 
ADCP,ioos:station:wmo:42890:1,2009-10-02T09:17:00Z,27.6250,-90.4410,15.2,141.0,14.4,-9999.0,'11111222,11111222,99999999' 
ADCP,ioos:station:wmo:42890:1,2009-10-02T09:37:00Z,27.6250,-90.4410,15.2,144.0,14.2,-9999.0,'11111222,11111222,99999999' 
ADCP,ioos:station:wmo:42890:1,2009-10-02T09:57:00Z,27.6250,-90.4410,15.2,133.0,14.6,-9999.0,'11111222,11111222,99999999' 
ADCP,ioos:station:wmo:42890:1,2009-10-02T10:17:00Z,27.6250,-90.4410,15.2,136.0,12.2,-9999.0,'11111222,11111222,99999999' 
ADCP,ioos:station:wmo:42890:1,2009-10-02T10:37:00Z,27.6250,-90.4410,15.2,132.0,10.5,-9999.0,'11111222,11111222,99999999' 
ADCP,ioos:station:wmo:42890:1,2009-10-02T10:57:00Z,27.6250,-90.4410,15.2,129.0,11.0,-9999.0,'11111222,11111222,99999999' 
ADCP,ioos:station:wmo:42890:1,2009-10-02T11:17:00Z,27.6250,-90.4410,15.2,153.0,7.6,-9999.0,'11133222,11111222,99999999' 
ADCP,ioos:station:wmo:42890:1,2009-10-02T11:37:00Z,27.6250,-90.4410,15.2,148.0,9.6,-9999.0,'11133222,11111222,99999999' 
ADCP,ioos:station:wmo:42890:1,2009-10-02T11:57:00Z,27.6250,-90.4410,15.2,161.0,9.3,-9999.0,'11133222,11111222,99999999' 
ADCP,ioos:station:wmo:42890:1,2009-10-02T12:17:00Z,27.6250,-90.4410,15.2,163.0,10.8,-9999.0,'11111222,11111222,99999999' 
ADCP,ioos:station:wmo:42890:1,2009-10-02T12:37:00Z,27.6250,-90.4410,15.2,214.0,9.1,-9999.0,'11133222,11111222,99999999' 
ADCP,ioos:station:wmo:42890:1,2009-10-02T12:57:00Z,27.6250,-90.4410,15.2,204.0,7.9,-9999.0,'11133222,11111222,99999999' 
ADCP,ioos:station:wmo:42890:1,2009-10-02T13:17:00Z,27.6250,-90.4410,15.2,205.0,11.9,-9999.0,'11111222,11111222,99999999' 
ADCP,ioos:station:wmo:42890:1,2009-10-02T13:37:00Z,27.6250,-90.4410,15.2,212.0,14.4,-9999.0,'11111222,11111222,99999999' 
ADCP,ioos:station:wmo:42890:1,2009-10-02T13:57:00Z,27.6250,-90.4410,15.2,222.0,12.7,-9999.0,'11111222,11111222,99999999' 
ADCP,ioos:station:wmo:42890:1,2009-10-02T14:17:00Z,27.6250,-90.4410,15.2,216.0,11.5,-9999.0,'11111222,11111222,99999999' 
ADCP,ioos:station:wmo:42890:1,2009-10-02T14:37:00Z,27.6250,-90.4410,15.2,215.0,11.9,-9999.0,'11111222,11111222,99999999' 
ADCP,ioos:station:wmo:42890:1,2009-10-02T14:57:00Z,27.6250,-90.4410,15.2,209.0,17.2,-9999.0,'11111222,11111222,99999999' 
ADCP,ioos:station:wmo:42890:1,2009-10-02T15:17:00Z,27.6250,-90.4410,15.2,203.0,18.1,-9999.0,'11111222,11111222,99999999' 
ADCP,ioos:station:wmo:42890:1,2009-10-02T15:37:00Z,27.6250,-90.4410,15.2,210.0,20.3,-9999.0,'11111222,11111222,99999999' 
ADCP,ioos:station:wmo:42890:1,2009-10-02T15:57:00Z,27.6250,-90.4410,15.2,216.0,21.9,-9999.0,'11111222,11111222,99999999' 
ADCP,ioos:station:wmo:42890:1,2009-10-02T16:17:00Z,27.6250,-90.4410,15.2,218.0,23.6,-9999.0,'11111222,11111222,99999999' 
ADCP,ioos:station:wmo:42890:1,2009-10-02T16:37:00Z,27.6250,-90.4410,15.2,215.0,22.4,-9999.0,'11111222,11111222,99999999' 
ADCP,ioos:station:wmo:42890:1,2009-10-02T16:57:00Z,27.6250,-90.4410,15.2,212.0,20.2,-9999.0,'11111222,11111222,99999999' 
ADCP,ioos:station:wmo:42890:1,2009-10-02T17:17:00Z,27.6250,-90.4410,15.2,195.0,16.0,-9999.0,'11111222,11111222,99999999' 
ADCP,ioos:station:wmo:42890:1,2009-10-02T17:37:00Z,27.6250,-90.4410,15.2,184.0,14.3,-9999.0,'11111222,11111222,99999999' 
ADCP,ioos:station:wmo:42890:1,2009-10-02T17:57:00Z,27.6250,-90.4410,15.2,198.0,14.5,-9999.0,'11111222,11111222,99999999' 
ADCP,ioos:station:wmo:42890:1,2009-10-02T18:17:00Z,27.6250,-90.4410,15.2,204.0,16.2,-9999.0,'11111222,11111222,99999999' 
ADCP,ioos:station:wmo:42890:1,2009-10-02T18:37:00Z,27.6250,-90.4410,15.2,209.0,18.4,-9999.0,'11111222,11111222,99999999' 
ADCP,ioos:station:wmo:42890:1,2009-10-02T18:57:00Z,27.6250,-90.4410,15.2,192.0,17.5,-9999.0,'11111222,11111222,99999999' 
ADCP,ioos:station:wmo:42890:1,2009-10-02T19:17:00Z,27.6250,-90.4410,15.2,187.0,20.1,-9999.0,'11111222,11111222,99999999' 
ADCP,ioos:station:wmo:42890:1,2009-10-02T19:37:00Z,27.6250,-90.4410,15.2,182.0,17.9,-9999.0,'11111222,11111222,99999999' 
ADCP,ioos:station:wmo:42890:1,2009-10-02T19:57:00Z,27.6250,-90.4410,15.2,163.0,19.1,-9999.0,'11111222,11111222,99999999' 
ADCP,ioos:station:wmo:42890:1,2009-10-02T20:17:00Z,27.6250,-90.4410,15.2,161.0,19.3,-9999.0,'11111222,11111222,99999999' 
ADCP,ioos:station:wmo:42890:1,2009-10-02T20:37:00Z,27.6250,-90.4410,15.2,132.0,27.0,-9999.0,'11111222,11111222,99999999' 
ADCP,ioos:station:wmo:42890:1,2009-10-02T20:57:00Z,27.6250,-90.4410,15.2,130.0,26.6,-9999.0,'11111222,11111222,99999999' 
ADCP,ioos:station:wmo:42890:1,2009-10-02T21:17:00Z,27.6250,-90.4410,15.2,140.0,19.7,-9999.0,'11111222,11111222,99999999' 
ADCP,ioos:station:wmo:42890:1,2009-10-02T21:37:00Z,27.6250,-90.4410,15.2,136.0,25.2,-9999.0,'11111222,11111222,99999999' 
ADCP,ioos:station:wmo:42890:1,2009-10-02T21:57:00Z,27.6250,-90.4410,15.2,145.0,22.8,-9999.0,'11111222,11111222,99999999' 
ADCP,ioos:station:wmo:42890:1,2009-10-02T22:17:00Z,27.6250,-90.4410,15.2,138.0,26.3,-9999.0,'11111222,11111222,99999999' 
ADCP,ioos:station:wmo:42890:1,2009-10-02T22:37:00Z,27.6250,-90.4410,15.2,133.0,27.7,-9999.0,'11111222,11111222,99999999' 
ADCP,ioos:station:wmo:42890:1,2009-10-02T22:57:00Z,27.6250,-90.4410,15.2,151.0,24.4,-9999.0,'11111222,11111222,99999999' 
ADCP,ioos:station:wmo:42890:1,2009-10-02T23:17:00Z,27.6250,-90.4410,15.2,164.0,25.3,-9999.0,'11111222,11111222,99999999' 
ADCP,ioos:station:wmo:42890:1,2009-10-02T23:37:00Z,27.6250,-90.4410,15.2,166.0,25.1,-9999.0,'11111222,11111222,99999999' 
ADCP,ioos:station:wmo:42890:1,2009-10-02T23:57:00Z,27.6250,-90.4410,15.2,177.0,23.7,-9999.0,'11111222,11111222,99999999' 
ADCP,ioos:station:wmo:42890:1,2009-10-03T00:17:00Z,27.6250,-90.4410,15.2,195.0,24.9,-9999.0,'11111222,11111222,99999999' 
ADCP,ioos:station:wmo:42890:1,2009-10-03T00:37:00Z,27.6250,-90.4410,15.2,197.0,26.3,-9999.0,'11111222,11111222,99999999' 
ADCP,ioos:station:wmo:42890:1,2009-10-03T00:57:00Z,27.6250,-90.4410,15.2,188.0,26.2,-9999.0,'11111222,11111222,99999999' 
ADCP,ioos:station:wmo:42890:1,2009-10-03T01:17:00Z,27.6250,-90.4410,15.2,197.0,26.5,-9999.0,'11111222,11111222,99999999' 
ADCP,ioos:station:wmo:42890:1,2009-10-03T01:37:00Z,27.6250,-90.4410,15.2,197.0,26.4,-9999.0,'11111222,11111222,99999999' 
ADCP,ioos:station:wmo:42890:1,2009-10-03T01:57:00Z,27.6250,-90.4410,15.2,197.0,27.1,-9999.0,'11111222,11111222,99999999' 
ADCP,ioos:station:wmo:42890:1,2009-10-03T02:17:00Z,27.6250,-90.4410,15.2,193.0,28.8,-9999.0,'11111222,11111222,99999999' 
ADCP,ioos:station:wmo:42890:1,2009-10-03T02:37:00Z,27.6250,-90.4410,15.2,180.0,27.1,-9999.0,'11111222,11111222,99999999' 
ADCP,ioos:station:wmo:42890:1,2009-10-03T02:57:00Z,27.6250,-90.4410,15.2,168.0,27.6,-9999.0,'11111222,11111222,99999999' 
ADCP,ioos:station:wmo:42890:1,2009-10-03T03:17:00Z,27.6250,-90.4410,15.2,167.0,32.3,-9999.0,'11111222,11111222,99999999' 
ADCP,ioos:station:wmo:42890:1,2009-10-03T03:37:00Z,27.6250,-90.4410,15.2,148.0,29.8,-9999.0,'11111222,11111222,99999999' 
ADCP,ioos:station:wmo:42890:1,2009-10-03T03:57:00Z,27.6250,-90.4410,15.2,168.0,30.3,-9999.0,'11111222,11111222,99999999' 
ADCP,ioos:station:wmo:42890:1,2009-10-03T04:17:00Z,27.6250,-90.4410,15.2,170.0,28.3,-9999.0,'11111222,11111222,99999999' 
ADCP,ioos:station:wmo:42890:1,2009-10-03T04:37:00Z,27.6250,-90.4410,15.2,160.0,28.7,-9999.0,'11111222,11111222,99999999' 
ADCP,ioos:station:wmo:42890:1,2009-10-03T04:57:00Z,27.6250,-90.4410,15.2,188.0,25.2,-9999.0,'11111222,11111222,99999999' 
ADCP,ioos:station:wmo:42890:1,2009-10-03T05:17:00Z,27.6250,-90.4410,15.2,195.0,24.4,-9999.0,'11111222,11111222,99999999' 
ADCP,ioos:station:wmo:42890:1,2009-10-03T05:37:00Z,27.6250,-90.4410,15.2,209.0,23.5,-9999.0,'11111222,11111222,99999999' 
ADCP,ioos:station:wmo:42890:1,2009-10-03T05:57:00Z,27.6250,-90.4410,15.2,218.0,21.3,-9999.0,'11111222,11111222,99999999' 
ADCP,ioos:station:wmo:42890:1,2009-10-03T06:17:00Z,27.6250,-90.4410,15.2,227.0,21.4,-9999.0,'11111222,11111222,99999999' 
ADCP,ioos:station:wmo:42890:1,2009-10-03T06:37:00Z,27.6250,-90.4410,15.2,227.0,21.4,-9999.0,'11111222,11111222,99999999' 
ADCP,ioos:station:wmo:42890:1,2009-10-03T06:57:00Z,27.6250,-90.4410,15.2,217.0,16.3,-9999.0,'11111222,11111222,99999999' 
ADCP,ioos:station:wmo:42890:1,2009-10-03T07:17:00Z,27.6250,-90.4410,15.2,202.0,12.3,-9999.0,'11111222,11111222,99999999' 
ADCP,ioos:station:wmo:42890:1,2009-10-03T07:37:00Z,27.6250,-90.4410,15.2,199.0,13.2,-9999.0,'11111222,11111222,99999999' 
ADCP,ioos:station:wmo:42890:1,2009-10-03T07:57:00Z,27.6250,-90.4410,15.2,210.0,13.9,-9999.0,'11111222,11111222,99999999' 
ADCP,ioos:station:wmo:42890:1,2009-10-03T08:17:00Z,27.6250,-90.4410,15.2,207.0,14.7,-9999.0,'11111222,11111222,99999999' 
ADCP,ioos:station:wmo:42890:1,2009-10-03T08:37:00Z,27.6250,-90.4410,15.2,207.0,14.0,-9999.0,'11111222,11111222,99999999' 
ADCP,ioos:station:wmo:42890:1,2009-10-03T08:57:00Z,27.6250,-90.4410,15.2,226.0,13.4,-9999.0,'11111222,11111222,99999999' 
ADCP,ioos:station:wmo:42890:1,2009-10-03T09:17:00Z,27.6250,-90.4410,15.2,226.0,12.5,-9999.0,'11111222,11111222,99999999' 
ADCP,ioos:station:wmo:42890:1,2009-10-03T09:37:00Z,27.6250,-90.4410,15.2,231.0,13.3,-9999.0,'11111222,11111222,99999999' 
ADCP,ioos:station:wmo:42890:1,2009-10-03T09:57:00Z,27.6250,-90.4410,15.2,216.0,16.3,-9999.0,'11111222,11111222,99999999' 
ADCP,ioos:station:wmo:42890:1,2009-10-03T10:17:00Z,27.6250,-90.4410,15.2,207.0,14.2,-9999.0,'11111222,11111222,99999999' 
ADCP,ioos:station:wmo:42890:1,2009-10-03T10:37:00Z,27.6250,-90.4410,15.2,213.0,14.9,-9999.0,'11111222,11111222,99999999' 
ADCP,ioos:station:wmo:42890:1,2009-10-03T10:57:00Z,27.6250,-90.4410,15.2,210.0,14.7,-9999.0,'11111222,11111222,99999999' 
ADCP,ioos:station:wmo:42890:1,2009-10-03T11:17:00Z,27.6250,-90.4410,15.2,184.0,15.0,-9999.0,'11111222,11111222,99999999' 
ADCP,ioos:station:wmo:42890:1,2009-10-03T11:37:00Z,27.6250,-90.4410,15.2,219.0,15.5,-9999.0,'11111222,11111222,99999999' 
ADCP,ioos:station:wmo:42890:1,2009-10-03T11:57:00Z,27.6250,-90.4410,15.2,219.0,11.9,-9999.0,'11111222,11111222,99999999' 
ADCP,ioos:station:wmo:42890:1,2009-10-03T12:17:00Z,27.6250,-90.4410,15.2,212.0,9.9,-9999.0,'11133222,11111222,99999999' 
ADCP,ioos:station:wmo:42890:1,2009-10-03T12:37:00Z,27.6250,-90.4410,15.2,210.0,10.1,-9999.0,'11111222,11111222,99999999' 
ADCP,ioos:station:wmo:42890:1,2009-10-03T12:57:00Z,27.6250,-90.4410,15.2,219.0,11.5,-9999.0,'11111222,11111222,99999999' 
ADCP,ioos:station:wmo:42890:1,2009-10-03T13:17:00Z,27.6250,-90.4410,15.2,215.0,13.6,-9999.0,'11111222,11111222,99999999' 
ADCP,ioos:station:wmo:42890:1,2009-10-03T13:37:00Z,27.6250,-90.4410,15.2,220.0,16.4,-9999.0,'11111222,11111222,99999999' 
ADCP,ioos:station:wmo:42890:1,2009-10-03T13:57:00Z,27.6250,-90.4410,15.2,219.0,14.9,-9999.0,'11111222,11111222,99999999' 
ADCP,ioos:station:wmo:42890:1,2009-10-03T14:17:00Z,27.6250,-90.4410,15.2,174.0,20.3,-9999.0,'11111222,11111222,99999999' 
ADCP,ioos:station:wmo:42890:1,2009-10-03T14:37:00Z,27.6250,-90.4410,15.2,202.0,15.5,-9999.0,'11111222,11111222,99999999' 
ADCP,ioos:station:wmo:42890:1,2009-10-03T14:57:00Z,27.6250,-90.4410,15.2,201.0,16.5,-9999.0,'11111222,11111222,99999999' 
ADCP,ioos:station:wmo:42890:1,2009-10-03T15:17:00Z,27.6250,-90.4410,15.2,230.0,16.3,-9999.0,'11111222,11111222,99999999' 
ADCP,ioos:station:wmo:42890:1,2009-10-03T15:37:00Z,27.6250,-90.4410,15.2,216.0,13.7,-9999.0,'11111222,11111222,99999999' 
ADCP,ioos:station:wmo:42890:1,2009-10-03T15:57:00Z,27.6250,-90.4410,15.2,229.0,14.2,-9999.0,'11111222,11111222,99999999' 
ADCP,ioos:station:wmo:42890:1,2009-10-03T16:17:00Z,27.6250,-90.4410,15.2,233.0,11.7,-9999.0,'11111222,11111222,99999999' 
ADCP,ioos:station:wmo:42890:1,2009-10-03T16:37:00Z,27.6250,-90.4410,15.2,238.0,12.2,-9999.0,'11111222,11111222,99999999' 
ADCP,ioos:station:wmo:42890:1,2009-10-03T16:57:00Z,27.6250,-90.4410,15.2,228.0,10.5,-9999.0,'11111222,11111222,99999999' 